HADES-ICM

Last updated on Thu Oct 30 2025 00:03:11 GMT+0000 (Coordinated Universal Time)

1 63492U 25052BN 25302.20334933 .00064306 00000+0 20073-2 0 9999 2 63492 97.4101 195.4236 0006223 224.3559 135.7185 15.32949651 34867
UTC large
Height (km)
Speed (km/s)
/
Latitude / Longitude
Inclination (degrees)
Orbital Period (minutes)
Azimuth
Elevation
Range (km)
Doppler Factor

Next 0 passes for location: London (51.5072 / 0.1276)

Sorry there are no passes over London.